When you browse on this site, cookies collect data to enhance your experience and personalize the content and advertising you see.
Visit our Privacy Policy to learn more. By continuing to use the site, you agree to this use of cookies and data.

Meteo pe oră la Dzierzawa

Astăzi, 19 Septembrie, Sâmbătă

Timp Temperatura Precipitaţii Vânt Presiune Umiditate
00:00 +11°C° 0 mm 1 m/s 741 mmHg 60%
01:00 +10°C° 0 mm 1 m/s 741 mmHg 62%
02:00 +10°C° 0 mm 1 m/s 741 mmHg 63%
03:00 +10°C° 0 mm 1 m/s 740 mmHg 63%
04:00 +10°C° 0 mm 1 m/s 740 mmHg 64%
05:00 +10°C° 0 mm 1 m/s 740 mmHg 63%
06:00 +11°C° 0 mm 1 m/s 740 mmHg 62%
07:00 +10°C° 0 mm 2 m/s 740 mmHg 58%
08:00 +13°C° 0 mm 2 m/s 740 mmHg 53%
09:00 +15°C° 0 mm 2 m/s 740 mmHg 48%
10:00 +16°C° 0 mm 3 m/s 740 mmHg 42%
11:00 +17°C° 0 mm 3 m/s 739 mmHg 40%
12:00 +18°C° 0 mm 3 m/s 739 mmHg 38%
13:00 +19°C° 0 mm 3 m/s 739 mmHg 35%
14:00 +19°C° 0 mm 3 m/s 738 mmHg 37%
15:00 +19°C° 0 mm 3 m/s 738 mmHg 39%
16:00 +18°C° 0 mm 3 m/s 738 mmHg 42%
17:00 +17°C° 0 mm 3 m/s 738 mmHg 46%
18:00 +15°C° 0 mm 2 m/s 737 mmHg 51%
19:00 +14°C° 0 mm 2 m/s 737 mmHg 55%
20:00 +13°C° 0 mm 2 m/s 737 mmHg 56%
21:00 +12°C° 0 mm 3 m/s 737 mmHg 57%
22:00 +11°C° 0 mm 3 m/s 738 mmHg 57%
23:00 +11°C° 0 mm 3 m/s 737 mmHg 58%

Mâine, 20 Septembrie, Duminică

Timp Temperatura Precipitaţii Vânt Presiune Umiditate
00:00 +11°C° 0 mm 3 m/s 737 mmHg 60%
01:00 +10°C° 0 mm 2 m/s 737 mmHg 61%
02:00 +10°C° 0 mm 3 m/s 737 mmHg 62%
03:00 +10°C° 0 mm 3 m/s 737 mmHg 64%
04:00 +10°C° 0 mm 3 m/s 736 mmHg 66%
05:00 +10°C° 0 mm 3 m/s 736 mmHg 66%
06:00 +10°C° 0 mm 3 m/s 737 mmHg 66%
07:00 +11°C° 0 mm 3 m/s 737 mmHg 66%
08:00 +12°C° 0 mm 4 m/s 737 mmHg 62%
09:00 +14°C° 0 mm 4 m/s 737 mmHg 57%
10:00 +17°C° 0 mm 4 m/s 737 mmHg 53%
11:00 +18°C° 0 mm 4 m/s 736 mmHg 52%
12:00 +19°C° 0 mm 4 m/s 736 mmHg 50%
13:00 +20°C° 0 mm 4 m/s 736 mmHg 49%
14:00 +19°C° 0 mm 3 m/s 736 mmHg 50%
15:00 +19°C° 0 mm 3 m/s 736 mmHg 52%
16:00 +19°C° 0 mm 3 m/s 735 mmHg 53%
17:00 +18°C° 0 mm 3 m/s 735 mmHg 58%
18:00 +17°C° 0 mm 2 m/s 735 mmHg 64%
19:00 +15°C° 0 mm 2 m/s 735 mmHg 69%
20:00 +15°C° 0 mm 2 m/s 735 mmHg 71%
21:00 +14°C° 0 mm 2 m/s 735 mmHg 72%
22:00 +14°C° 0 mm 2 m/s 736 mmHg 74%
23:00 +14°C° 0 mm 1 m/s 735 mmHg 75%

Poimâine, 21 Septembrie, Luni

Timp Temperatura Precipitaţii Vânt Presiune Umiditate
00:00 +13°C° 0 mm 1 m/s 735 mmHg 75%
01:00 +13°C° 0 mm 1 m/s 735 mmHg 76%
02:00 +13°C° 0 mm 1 m/s 735 mmHg 76%
03:00 +13°C° 0 mm 1 m/s 735 mmHg 77%
04:00 +13°C° 0 mm 1 m/s 735 mmHg 77%
05:00 +13°C° 0 mm 1 m/s 735 mmHg 74%
06:00 +14°C° 0 mm 1 m/s 735 mmHg 71%
07:00 +15°C° 0 mm 1 m/s 735 mmHg 68%
08:00 +18°C° 0 mm 1 m/s 735 mmHg 60%
09:00 +21°C° 0 mm 1 m/s 735 mmHg 51%
10:00 +23°C° 0 mm 1 m/s 735 mmHg 43%
11:00 +24°C° 0 mm 1 m/s 735 mmHg 40%
12:00 +25°C° 0 mm 1 m/s 735 mmHg 36%
13:00 +26°C° 0 mm 1 m/s 735 mmHg 33%
14:00 +26°C° 0 mm 1 m/s 735 mmHg 35%
15:00 +25°C° 0 mm 1 m/s 735 mmHg 37%
16:00 +25°C° 0 mm 1 m/s 735 mmHg 39%
17:00 +23°C° 0 mm 1 m/s 734 mmHg 43%
18:00 +21°C° 0 mm 2 m/s 734 mmHg 47%
19:00 +19°C° 0 mm 2 m/s 734 mmHg 51%
20:00 +18°C° 0 mm 2 m/s 734 mmHg 52%
21:00 +18°C° 0 mm 2 m/s 734 mmHg 54%
22:00 +17°C° 0 mm 2 m/s 734 mmHg 55%
23:00 +17°C° 0 mm 2 m/s 734 mmHg 57%

22 Septembrie, Marţi

Timp Temperatura Precipitaţii Vânt Presiune Umiditate
00:00 +17°C° 0 mm 2 m/s 734 mmHg 58%
01:00 +16°C° 0 mm 2 m/s 734 mmHg 60%
02:00 +16°C° 0 mm 2 m/s 734 mmHg 60%
03:00 +16°C° 0 mm 2 m/s 733 mmHg 60%
04:00 +16°C° 0 mm 2 m/s 733 mmHg 60%
05:00 +16°C° 0 mm 2 m/s 733 mmHg 60%
06:00 +17°C° 0 mm 2 m/s 733 mmHg 59%
07:00 +17°C° 0 mm 2 m/s 733 mmHg 59%
08:00 +20°C° 0 mm 2 m/s 733 mmHg 52%
09:00 +23°C° 0 mm 2 m/s 733 mmHg 45%
10:00 +25°C° 0 mm 3 m/s 733 mmHg 39%
11:00 +26°C° 0 mm 3 m/s 733 mmHg 36%
12:00 +27°C° 0 mm 3 m/s 733 mmHg 34%
13:00 +28°C° 0 mm 3 m/s 732 mmHg 31%
14:00 +27°C° 0 mm 3 m/s 732 mmHg 33%
15:00 +27°C° 0 mm 2 m/s 732 mmHg 36%
16:00 +26°C° 0 mm 2 m/s 731 mmHg 38%
17:00 +25°C° 0 mm 2 m/s 731 mmHg 41%
18:00 +23°C° 0 mm 2 m/s 731 mmHg 44%
19:00 +20°C° 0 mm 2 m/s 731 mmHg 47%
20:00 +20°C° 0 mm 2 m/s 730 mmHg 49%
21:00 +19°C° 0 mm 2 m/s 730 mmHg 50%
22:00 +19°C° 0 mm 2 m/s 730 mmHg 52%
23:00 +18°C° 0 mm 2 m/s 730 mmHg 52%

23 Septembrie, Miercuri

Timp Temperatura Precipitaţii Vânt Presiune Umiditate
00:00 +18°C° 0 mm 2 m/s 729 mmHg 52%
01:00 +18°C° 0 mm 3 m/s 729 mmHg 53%
02:00 +18°C° 0 mm 3 m/s 729 mmHg 53%
03:00 +17°C° 0 mm 3 m/s 728 mmHg 52%
04:00 +17°C° 0 mm 3 m/s 728 mmHg 52%
05:00 +17°C° 0 mm 3 m/s 728 mmHg 53%
06:00 +18°C° 0 mm 3 m/s 728 mmHg 53%
07:00 +18°C° 0 mm 3 m/s 728 mmHg 53%
08:00 +20°C° 0 mm 3 m/s 728 mmHg 49%
09:00 +22°C° 0 mm 3 m/s 728 mmHg 46%
10:00 +25°C° 0 mm 3 m/s 728 mmHg 42%
11:00 +26°C° 0 mm 3 m/s 727 mmHg 41%
12:00 +26°C° 0 mm 3 m/s 727 mmHg 41%
13:00 +27°C° 0 mm 4 m/s 727 mmHg 40%
14:00 +26°C° 0 mm 3 m/s 727 mmHg 44%
15:00 +26°C° 0 mm 3 m/s 727 mmHg 47%
16:00 +25°C° 0 mm 2 m/s 726 mmHg 51%
17:00 +24°C° 0.2 mm 2 m/s 726 mmHg 56%
18:00 +21°C° 0.2 mm 2 m/s 726 mmHg 62%
19:00 +21°C° 0.2 mm 1 m/s 726 mmHg 68%
20:00 +19°C° 0.4 mm 2 m/s 726 mmHg 71%
21:00 +19°C° 0.4 mm 2 m/s 726 mmHg 75%
22:00 +18°C° 0.4 mm 2 m/s 726 mmHg 79%
23:00 +18°C° 0.2 mm 2 m/s 726 mmHg 82%

24 Septembrie, Joi

Timp Temperatura Precipitaţii Vânt Presiune Umiditate
00:00 +17°C° 0.2 mm 2 m/s 726 mmHg 84%
01:00 +17°C° 0.2 mm 2 m/s 726 mmHg 86%
02:00 +17°C° 0.1 mm 2 m/s 726 mmHg 87%
03:00 +17°C° 0.1 mm 2 m/s 726 mmHg 87%
04:00 +17°C° 0.1 mm 2 m/s 726 mmHg 88%
05:00 +17°C° 0 mm 2 m/s 726 mmHg 87%
06:00 +18°C° 0 mm 2 m/s 726 mmHg 85%
07:00 +18°C° 0 mm 2 m/s 726 mmHg 84%
08:00 +19°C° 0 mm 2 m/s 727 mmHg 78%
09:00 +20°C° 0 mm 2 m/s 727 mmHg 72%
10:00 +21°C° 0 mm 3 m/s 727 mmHg 65%
11:00 +23°C° 0.2 mm 2 m/s 727 mmHg 61%
12:00 +24°C° 0.2 mm 2 m/s 727 mmHg 56%
13:00 +25°C° 0.2 mm 2 m/s 727 mmHg 51%
14:00 +25°C° 0.1 mm 2 m/s 727 mmHg 53%
15:00 +24°C° 0.1 mm 2 m/s 727 mmHg 55%
16:00 +24°C° 0.1 mm 2 m/s 726 mmHg 56%
17:00 +23°C° 0.1 mm 2 m/s 726 mmHg 62%
18:00 +20°C° 0.1 mm 2 m/s 726 mmHg 67%
19:00 +20°C° 0.1 mm 1 m/s 726 mmHg 72%
20:00 +18°C° 0 mm 2 m/s 726 mmHg 74%
21:00 +18°C° 0 mm 2 m/s 725 mmHg 76%
22:00 +17°C° 0 mm 2 m/s 725 mmHg 77%
23:00 +17°C° 0 mm 2 m/s 725 mmHg 79%
Arată mai mult